Probability
0 0 0 0 0 0 0 0 0 0 0 0 0 0 0 0 0 0 0 0 0 0 0 0 0 0 0 0 0 0 0 0 0 0 0 0 0 0 0 0 0 0 0 0 0 0 0 0 0
0 0 0 0 0 0 0 0 0 0 0 0 0 0 0 0 0 0 0 0 0 0 0 0 0 0 0 0 0 0 0 0 0 0 0 0 0 0 0 0 0 0 0 0 0 0 0 0 0
0 0 0 0 0 0 0 0 0 0 0 0 0 0 0 0 0 0 0 0 0 0 0 0 0 0 0 0 0 0 0 0 0 0 0 0 0 0 0 0 0 0 0 0 0 0 0 0 0
0 0 0 0 0 0 0 0 0 0 0 0 0 0 0 0 0 0 0 0 0 0 0 0 0 0 0 0 0 0 0 0 0 0 0 0 0 0 0 0 0 0 0 0 0 0 0 0 0
0 0 0 0 0 0 0 0 0 0 0 0 0 0 0 0 0 0 0 0 0 0 0 0 0 0 0 0 0 0 0 0 0 0 0 0 0 0 0 0 0 0 0 0 0 0 0 0 0
0 0 0 0 0 0 0 0 0 0 0 0 0 0 0 0 0 0 0 0 0 0 0 0 0 0 0 0 0 0 0 0 0 0 0 0 0 0 0 0 0 0 0 0 0 0 0 0 0
0 0 0 0 0 0 0 0 0 0 0 0 0 0 0 0 0 0 0 0 0 0 0 0 0 0 0 0 0 0 0 0 0 0 0 0 0 0 0 0 0 0 0 0 0 0 0 0 0
0 0 0 0 0 0 0 0 0 0 0 0 0 0 0 0 0 0 0 0 0 0 0 0 0 0 0 0 0 0 0 0 0 0 0 0 0 0 0 0 0 0 0 0 0 0 0 0 0
0 0 0 0 0 0 0 0 0 0 0 0 0 0 0 0 0 0 0 0 0 0 0 0 0 0 0 0 0 0 0 0 0 0 0 0 0 0 0 0 0 0 0 0 0 0 0 0 0
0 0 0 0 0 0 0 0 0 0 0 0 0 0 0 0 0 0 0 0 0 0 0 0 0 0 0 0 0 0 0 0 0 0 0 0 0 0 0 0 0 0 0 0 0 0 0 0 0
0 0 0 0 0 0 0 0 0 0 0 0 0 0 0 0 0 0 0 0 0 0 0 0 0 0 0 0 0 0 0 0 0 0 0 0 0 0 0 0 0 0 0 0 0 0 0 0 0
0 0 0 0 0 0 0 0 0 0 0 0 0 0 0 0 0 0 0 0 0 0 0 0 0 0 0 0 0 0 0 0 0 0 0 0 0 0 0 0 0 0 0 0 0 0 0 0 0
0 0 0 0 0 0 0 0 0 0 0 0 0 0 0 0 0 0 0 0 0 0 0 0 0 0 0 0 0 0 0 0 0 0 0 0 0 0 0 0 0 0 0 0 0 0 0 0 0
0 0 0 0 0 0 0 0 0 0 0 0 0 0 0 0 0 0 0 0 0 0 0 0 0 0 0 0 0 0 0 0 0 0 0 0 0 0 0 0 0 0 0 0 0 0 0 0 0
0 0 0 0 0 0 0 0 0 0 0 0 0 0 0 0 0 0 0 0 0 0 0 0 0 0 0 0 0 0 0 0 0 0 0 0 0 0 0 0 0 0 0 0 0 0 0 0 0
0 0 0 0 0 0 0 0 0 0 0 0 0 0 0 0 0 0 0 0 0 0 0 0 0 0 0 0 0 0 0 0 0 0 0 0 0 0 0 0 0 0 0 0 0 0 0 0 0
0 0 0 0 0 0 0 0 0 0 0 0 0 0 0 0 0 0 0 0 0 0 0 0 0 0 0 0 0 0 0 0 0 0 0 0 0 0 0 0 0 0 0 0 0 0 0 0 0
0 0 0 0 0 0 0 0 0 0 0 0 0 0 0 0 0 0 0 0 0 0 0 0 0 0 0 0 0 0 0 0 0 0 0 0 0 0 0 0 0 0 0 0 0 0 0 0 0
0 0 0 0 0 0 0 0 0 0 0 0 0 0 0 0 0 0 0 0 0 0 0 0 0 0 0 0 0 0 0 0 0 0 0 0 0 0 0 0 0 0 0 0 0 0 0 0 0
0 0 0 0 0 0 0 0 0 0 0 0 0 0 0 0 0 0 0 0 0 0 0 0 0 0 0 0 0 0 0 0 0 0 0 0 0 0 0 0 0 0 0 0 0 0 0 0 0
0 0 0 0 0 0 0 0 0 0 0 0 0 0 0 0 0 0 0 0 0 0 0 0 0 0 0 0 0 0 0 0 0 0 0 0 0 0 0 0 0 0 0 0 0 0 0 0 0
0 0 0 0 0 0 0 0 0 0 0 0 0 0 0 0 0 0 0 0 0 0 0 0 0 0 0 0 0 0 0 0 0 0 0 0 0 0 0 0 0 0 0 0 0 0 0 0 0
0 0 0 0 0 0 0 0 0 0 0 0 0 0 0 0 0 0 0 0 0 0 0 0 0 0 0 0 0 0 0 0 0 0 0 0 0 0 0 0 0 0 0 0 0 0 0 0 0
0 0 0 0 0 0 0 0 0 0 0 0 0 0 0 0 0 0 0 0 0 0 0 0 0 0 0 0 0 0 0 0 0 0 0 0 0 0 0 0 0 0 0 0 0 0 0 0 0
0 0 0 0 0 0 0 0 0 0 0 0 0 0 0 0 0 0 0 0 0 0 0 0 0 0 0 0 0 0 0 0 0 0 0 0 0 0 0 0 0 0 0 0 0 0 0 0 0
0 0 0 0 0 0 0 0 0 0 0 0 0 0 0 0 0 0 0 0 0 0 0 0 0 0 0 0 0 0 0 0 0 0 0 0 0 0 0 0 0 0 0 0 0 0 0 0 0
0 0 0 0 0 0 0 0 0 0 0 0 0 0 0 0 0 0 0 0 0 0 0 0 0 0 0 0 0 0 0 0 0 0 0 0 0 0 0 0 0 0 0 0 0 0 0 0 0
0 0 0 0 0 0 0 0 0 0 0 0 0 0 0 0 0 0 0 0 0 0 0 0 0 0 0 0 0 0 0 0 0 0 0 0 0 0 0 0 0 0 0 0 0 0 0 0 0
0 0 0 0 0 0 0 0 0 0 0 0 0 0 0 0 0 0 0 0 0 0 0 0 0 0 0 0 0 0 0 0 0 0 0 0 0 0 0 0 0 0 0 0 0 0 0 0 0
0 0 0 0 0 0 0 0 0 0 0 0 0 0 0 0 0 0 0 0 0 0 0 0 0 0 0 0 0 0 0 0 0 0 0 0 0 0 0 0 0 0 0 0 0 0 0 0 0
Height
5870 5871 5872 5873 5875 5875 5875 5875 5876 5877 5877 5878 5879 5879 5879 5879 5880 5882 5880 5878 5877 5876 5875 5873 5872 5870 5869 5868 5866 5865 5863 5861 5860 5858 5856 5854 5853 5851 5849 5848 5846 5844 5843 5841 5840 5838 5837 5837 5837
5871 5872 5874 5875 5875 5875 5876 5876 5877 5878 5879 5879 5879 5880 5880 5880 5879 5879 5878 5877 5876 5875 5873 5871 5870 5868 5867 5865 5863 5861 5859 5857 5855 5853 5851 5848 5846 5844 5842 5840 5838 5836 5835 5833 5832 5830 5829 5828 5827
5874 5874 5876 5877 5876 5877 5878 5878 5879 5879 5880 5880 5881 5881 5881 5880 5879 5878 5877 5876 5874 5873 5871 5869 5867 5866 5864 5861 5859 5857 5855 5853 5850 5847 5845 5842 5839 5836 5834 5831 5829 5827 5825 5823 5822 5820 5819 5818 5817
5877 5878 5879 5879 5879 5880 5880 5881 5881 5881 5881 5881 5881 5881 5880 5880 5879 5877 5875 5874 5872 5870 5869 5867 5864 5862 5860 5857 5855 5852 5849 5847 5844 5840 5837 5834 5831 5828 5824 5821 5818 5815 5813 5811 5809 5807 5806 5805 5804
5879 5880 5881 5881 5881 5882 5882 5882 5882 5882 5882 5882 5881 5881 5879 5878 5876 5875 5873 5871 5869 5867 5865 5863 5861 5858 5855 5852 5849 5846 5843 5839 5836 5832 5828 5825 5821 5817 5813 5810 5806 5803 5799 5796 5794 5792 5790 5789 5788
5882 5883 5882 5882 5883 5884 5883 5883 5883 5882 5881 5881 5880 5879 5877 5876 5874 5872 5870 5868 5866 5864 5861 5859 5856 5853 5849 5846 5842 5838 5835 5831 5827 5823 5818 5814 5809 5805 5801 5797 5793 5789 5785 5781 5777 5774 5772 5771 5770
5886 5885 5884 5884 5884 5884 5884 5883 5882 5881 5880 5879 5878 5877 5875 5873 5871 5869 5867 5865 5862 5860 5857 5854 5850 5847 5843 5839 5835 5831 5827 5822 5817 5812 5807 5802 5797 5792 5787 5782 5777 5773 5768 5763 5759 5755 5751 5748 5747
5887 5887 5885 5884 5884 5884 5884 5882 5881 5880 5879 5877 5876 5874 5872 5870 5868 5866 5863 5861 5858 5855 5852 5848 5844 5840 5836 5832 5828 5823 5818 5813 5808 5803 5797 5792 5786 5780 5774 5767 5761 5754 5748 5742 5735 5730 5725 5721 5718
5887 5888 5885 5885 5884 5883 5882 5880 5879 5877 5876 5874 5872 5871 5870 5867 5864 5862 5860 5857 5854 5851 5847 5842 5838 5833 5829 5824 5820 5815 5809 5804 5799 5793 5787 5781 5775 5768 5761 5753 5745 5736 5728 5719 5710 5702 5695 5689 5685
5887 5886 5885 5883 5882 5881 5879 5878 5876 5875 5873 5871 5870 5868 5866 5864 5861 5858 5856 5852 5849 5845 5841 5837 5832 5827 5822 5817 5812 5807 5801 5795 5789 5783 5777 5770 5763 5755 5747 5738 5729 5719 5708 5697 5685 5674 5664 5656 5650
5885 5884 5883 5881 5880 5878 5877 5875 5874 5872 5871 5870 5868 5866 5863 5860 5857 5854 5851 5847 5843 5839 5835 5831 5826 5821 5815 5810 5804 5799 5793 5786 5780 5773 5766 5759 5750 5741 5732 5722 5711 5699 5686 5671 5657 5643 5630 5620 5612
5883 5882 5881 5879 5878 5876 5875 5874 5872 5871 5870 5867 5865 5862 5860 5857 5853 5850 5846 5842 5838 5834 5829 5824 5819 5814 5808 5802 5796 5790 5783 5776 5769 5762 5755 5746 5737 5727 5715 5703 5689 5674 5657 5640 5623 5608 5595 5585 5576
5882 5880 5879 5877 5876 5875 5873 5872 5870 5869 5867 5864 5862 5859 5856 5853 5849 5845 5841 5837 5833 5828 5823 5818 5812 5806 5801 5795 5788 5781 5774 5767 5759 5751 5743 5733 5723 5711 5697 5682 5664 5644 5623 5604 5586 5572 5561 5552 5545
5881 5879 5878 5876 5875 5873 5872 5870 5869 5867 5864 5862 5859 5856 5852 5849 5845 5841 5837 5832 5828 5823 5817 5811 5805 5799 5793 5787 5780 5773 5766 5758 5749 5740 5730 5719 5706 5692 5675 5657 5636 5613 5591 5571 5555 5542 5532 5523 5515
5879 5878 5877 5875 5874 5873 5871 5869 5867 5864 5861 5858 5855 5852 5849 5845 5841 5837 5832 5828 5823 5817 5812 5806 5799 5793 5786 5779 5772 5765 5756 5748 5738 5727 5715 5702 5687 5671 5651 5630 5606 5583 5563 5545 5531 5518 5506 5494 5484
5878 5878 5876 5875 5873 5871 5871 5868 5865 5861 5858 5855 5852 5849 5845 5841 5837 5832 5828 5823 5818 5812 5806 5800 5793 5785 5778 5771 5764 5755 5746 5736 5725 5713 5699 5684 5667 5648 5626 5603 5579 5557 5539 5523 5509 5494 5480 5467 5453
5877 5876 5875 5873 5871 5869 5867 5865 5862 5858 5856 5852 5849 5846 5842 5838 5833 5829 5824 5819 5813 5807 5801 5794 5786 5779 5771 5763 5755 5745 5735 5723 5711 5697 5682 5665 5646 5625 5602 5578 5556 5537 5520 5503 5487 5471 5455 5440 5426
5876 5874 5873 5871 5869 5867 5865 5862 5860 5856 5853 5850 5846 5843 5839 5835 5831 5825 5821 5815 5809 5802 5795 5788 5780 5772 5763 5754 5745 5734 5722 5710 5696 5682 5665 5647 5626 5603 5580 5557 5536 5518 5501 5484 5467 5451 5433 5416 5401
5875 5873 5872 5870 5867 5865 5863 5860 5858 5854 5851 5848 5844 5841 5837 5833 5828 5823 5817 5811 5805 5798 5790 5781 5773 5764 5754 5745 5735 5723 5710 5697 5682 5666 5648 5629 5607 5583 5560 5538 5519 5501 5483 5466 5448 5430 5414 5397 5382
5873 5872 5871 5869 5866 5864 5861 5859 5856 5853 5850 5846 5843 5839 5835 5830 5825 5820 5814 5807 5800 5792 5784 5775 5765 5755 5745 5735 5724 5712 5699 5684 5669 5652 5633 5611 5588 5565 5542 5522 5504 5486 5468 5450 5431 5412 5396 5381 5366
5872 5871 5869 5867 5865 5862 5860 5858 5855 5851 5848 5845 5841 5836 5832 5826 5821 5816 5809 5802 5794 5786 5778 5768 5757 5747 5736 5724 5713 5700 5686 5671 5655 5637 5617 5595 5571 5548 5527 5508 5490 5472 5453 5435 5416 5397 5380 5367 5355
5870 5869 5867 5865 5864 5862 5860 5857 5853 5849 5845 5842 5838 5833 5828 5823 5817 5811 5804 5797 5789 5780 5770 5760 5749 5738 5726 5714 5702 5688 5674 5659 5643 5624 5603 5581 5557 5534 5514 5496 5477 5459 5441 5422 5403 5384 5367 5354 5343
5868 5867 5866 5864 5862 5860 5857 5855 5852 5847 5844 5840 5835 5830 5825 5819 5812 5806 5799 5791 5783 5773 5763 5753 5741 5729 5717 5704 5691 5677 5663 5647 5630 5611 5591 5568 5545 5523 5503 5485 5467 5448 5430 5411 5392 5374 5358 5344 5333
5866 5865 5863 5861 5859 5858 5854 5851 5848 5844 5840 5836 5832 5826 5821 5815 5809 5801 5794 5785 5776 5767 5756 5745 5733 5721 5708 5695 5681 5667 5652 5636 5619 5600 5579 5557 5535 5513 5494 5476 5457 5439 5420 5402 5383 5365 5350 5337 5326
5863 5862 5861 5858 5856 5855 5851 5848 5845 5841 5836 5832 5827 5823 5817 5811 5804 5796 5788 5780 5770 5760 5749 5738 5725 5713 5700 5686 5671 5657 5642 5626 5608 5589 5569 5548 5526 5506 5486 5468 5450 5431 5413 5394 5375 5358 5343 5330 5320
5860 5859 5858 5856 5853 5850 5847 5844 5843 5838 5833 5828 5823 5817 5811 5805 5799 5791 5783 5774 5764 5754 5743 5731 5718 5705 5691 5677 5662 5648 5632 5616 5599 5580 5560 5538 5517 5498 5479 5461 5443 5425 5407 5388 5369 5352 5337 5325 5314
5856 5854 5853 5852 5848 5846 5844 5841 5838 5834 5829 5825 5819 5813 5807 5800 5793 5786 5777 5768 5758 5748 5736 5724 5711 5698 5684 5669 5654 5639 5623 5607 5590 5571 5551 5530 5510 5491 5473 5455 5438 5420 5402 5383 5364 5347 5332 5320 5310
5852 5850 5849 5846 5844 5841 5839 5836 5833 5828 5824 5819 5814 5808 5802 5795 5788 5780 5771 5762 5752 5742 5730 5718 5705 5691 5677 5662 5647 5631 5615 5599 5582 5564 5544 5524 5504 5485 5468 5451 5433 5416 5397 5379 5361 5344 5329 5316 5306
5846 5845 5843 5841 5839 5836 5832 5833 5827 5822 5817 5812 5807 5801 5796 5789 5782 5774 5765 5756 5746 5736 5724 5712 5698 5685 5670 5656 5640 5624 5608 5592 5575 5557 5538 5518 5498 5480 5463 5446 5430 5413 5395 5376 5358 5342 5327 5314 5303
5840 5839 5838 5836 5834 5829 5826 5828 5820 5816 5811 5807 5802 5795 5789 5782 5775 5767 5759 5750 5740 5729 5718 5706 5693 5679 5664 5650 5634 5618 5602 5586 5569 5552 5533 5513 5494 5476 5459 5443 5427 5410 5393 5375 5358 5342 5327 5314 5303
Wind_Speed
7 7 7 6 5 4 3 2 3 4 5 5 5 6 7 8 9 8 8 9 10 11 13 14 16 17 19 20 22 23 25 26 28 30 31 33 34 35 36 37 39 40 41 42 42 43 43 43 43
9 9 9 8 8 8 6 6 7 7 6 6 5 6 7 7 8 9 10 12 13 14 16 17 18 20 21 23 24 25 27 28 30 32 34 35 37 39 40 41 43 44 44 45 46 46 47 47 47
13 13 11 10 11 11 9 8 8 7 7 6 5 5 6 7 9 11 12 14 15 17 18 19 21 22 23 25 26 28 29 31 33 35 37 39 41 43 44 46 47 48 49 50 51 52 52 53 53
15 14 13 12 11 11 9 8 7 6 5 5 5 6 7 9 11 13 15 16 17 19 20 21 23 24 25 27 29 30 32 34 37 39 41 43 44 46 48 50 51 53 54 55 56 57 58 59 59
15 14 13 12 10 9 8 7 5 4 4 5 7 9 11 13 14 15 17 18 19 21 22 23 24 26 28 30 32 34 36 38 40 42 43 45 47 49 51 53 55 57 59 60 62 63 63 64 65
13 12 12 10 8 6 4 4 4 5 7 9 11 12 14 15 15 17 18 19 20 22 23 25 27 29 31 33 36 38 40 41 43 45 47 49 52 54 56 58 60 62 64 65 67 68 69 70 70
9 8 8 6 4 3 5 6 7 9 11 12 13 14 15 15 16 17 19 21 22 24 26 28 30 33 35 37 38 40 42 44 46 48 51 54 57 60 63 65 67 69 70 72 74 75 77 78 78
5 5 4 3 4 6 8 10 11 12 13 14 14 14 15 15 17 19 21 24 26 28 30 32 34 36 37 39 40 42 44 47 49 52 55 58 61 65 68 71 73 75 78 80 83 86 88 90 91
5 6 7 8 9 11 12 13 13 13 13 14 14 14 15 17 19 22 24 27 29 32 34 35 37 38 39 40 42 44 47 49 52 55 59 62 65 68 71 74 77 80 84 88 93 96 100 102 104
9 10 11 12 13 13 13 13 12 12 13 13 14 15 16 19 21 25 28 30 32 34 35 36 37 38 40 42 44 46 49 52 55 58 62 65 68 71 74 77 81 85 91 96 101 106 109 112 114
12 12 13 13 12 12 12 12 12 12 12 14 15 17 19 22 25 28 30 32 34 34 35 36 37 39 41 44 46 49 52 55 58 61 65 68 70 73 77 81 86 92 98 104 109 113 115 116 117
12 12 11 11 11 11 12 12 12 13 13 15 17 19 22 24 27 29 31 33 33 34 35 37 38 41 43 46 49 52 55 58 61 64 67 69 73 76 80 86 93 100 106 110 112 112 110 107 104
10 9 9 10 11 11 12 12 13 13 15 16 18 21 23 25 27 29 31 32 33 35 37 39 40 43 46 48 51 54 57 60 64 67 69 71 75 79 85 92 99 105 109 109 105 98 92 87 84
8 8 9 9 10 11 12 12 13 14 15 17 19 21 23 25 27 29 31 33 35 37 38 40 42 45 48 50 53 56 59 62 65 68 70 73 78 84 91 97 103 105 103 97 90 84 81 80 81
8 8 9 9 10 11 11 12 14 14 16 17 19 21 23 25 27 29 32 35 37 38 40 42 44 47 50 53 55 58 61 64 66 69 72 76 82 88 95 100 102 100 92 85 81 80 81 82 83
7 8 9 9 10 11 11 11 13 15 16 18 20 21 24 26 28 31 33 36 38 40 41 44 47 49 52 54 56 59 62 65 67 70 74 79 86 93 98 100 98 91 83 80 80 81 81 81 81
7 7 7 8 10 11 12 12 13 16 18 19 21 23 25 27 29 32 34 36 39 41 44 46 48 50 52 54 56 59 62 65 68 72 77 83 90 95 98 97 90 83 79 79 79 79 79 77 74
7 8 8 8 9 10 12 14 15 17 19 21 23 24 26 28 30 32 35 37 40 42 45 46 48 50 52 54 56 60 63 66 70 74 80 86 92 96 96 91 84 79 78 78 77 77 75 72 67
7 8 8 8 8 10 12 13 15 18 20 22 24 25 27 29 31 33 36 39 41 43 45 47 49 50 51 54 57 61 64 68 71 77 82 89 94 96 92 85 79 78 77 76 76 75 71 65 61
7 7 6 7 8 10 12 13 15 18 20 22 24 26 28 31 34 36 39 41 44 46 48 49 50 51 52 54 58 62 65 69 73 78 84 91 94 93 87 81 77 77 76 75 75 74 68 61 58
7 7 6 6 7 8 11 12 14 17 19 22 24 27 30 34 37 39 42 44 46 49 51 53 54 55 55 57 60 63 67 70 75 80 86 91 93 89 83 78 76 75 75 74 74 72 66 59 54
8 7 6 6 6 7 8 10 13 17 19 22 25 28 31 35 39 42 44 46 49 51 54 57 59 60 60 60 62 65 69 72 76 81 87 91 90 85 79 76 76 74 74 74 73 70 64 58 52
8 8 7 7 7 8 10 11 14 16 18 21 25 28 31 35 39 43 46 49 51 53 56 59 63 64 64 63 64 67 70 73 77 83 87 89 87 82 77 75 75 74 74 73 72 67 61 55 50
10 9 9 9 9 9 11 13 15 17 20 22 25 28 32 35 39 44 47 50 53 56 59 62 65 68 69 67 67 69 72 74 78 83 87 88 84 79 75 74 74 74 73 73 71 65 59 52 46
12 11 11 11 11 12 12 14 16 18 21 23 26 29 32 36 40 44 48 52 55 58 61 64 66 70 72 71 70 71 73 75 79 83 87 86 82 77 73 72 72 73 73 72 69 64 57 50 43
14 14 14 14 15 14 14 15 17 19 21 24 27 31 34 37 41 45 49 53 56 60 62 65 68 71 74 74 73 73 74 76 79 83 86 85 81 75 72 71 71 72 72 72 68 63 56 48 41
16 16 17 17 17 17 18 19 19 20 22 25 28 32 35 38 41 45 49 53 57 61 64 66 69 72 75 76 75 74 75 77 80 83 86 84 80 74 71 70 71 71 72 71 68 63 56 48 41
19 19 19 19 20 21 21 22 23 24 26 28 31 33 36 39 43 46 50 54 58 61 65 67 70 72 75 78 77 76 76 77 79 83 85 83 79 73 70 70 70 70 71 70 67 62 56 49 42
22 21 22 22 23 25 25 24 26 27 29 32 34 37 39 42 45 48 51 54 58 61 65 68 70 73 76 78 79 77 76 77 79 82 84 82 78 72 69 69 69 70 70 70 66 62 56 48 42
24 24 24 26 26 27 29 26 28 30 31 32 35 38 41 44 47 50 52 55 58 61 65 68 70 73 75 78 80 78 77 76 78 81 83 81 76 72 68 68 68 69 69 69 65 60 55 49 43
Wind_Direction
112 126 134 138 143 130 117 111 98 95 91 78 65 51 43 37 29 21 6 349 336 327 322 321 320 318 315 313 311 310 309 308 307 306 304 302 300 298 296 294 292 290 288 286 284 283 281 278 276
103 111 117 119 119 108 108 106 106 103 99 87 69 50 36 21 6 355 343 333 327 324 322 321 319 317 315 314 313 312 310 309 308 307 305 303 302 300 298 296 293 291 288 286 283 281 280 278 276
99 100 103 103 97 97 102 101 100 99 88 74 54 30 8 351 341 335 330 326 324 323 321 321 320 318 316 314 312 311 310 309 307 306 304 303 301 299 298 296 294 291 288 285 283 280 278 277 275
97 98 97 95 92 91 90 88 86 82 68 43 12 348 334 325 324 324 323 323 323 323 323 322 320 318 315 313 312 311 310 308 307 306 304 303 301 300 299 297 295 293 291 288 285 282 279 277 275
99 99 97 92 87 84 81 75 65 45 14 350 337 327 321 319 321 321 322 324 324 323 323 322 320 317 314 313 313 312 311 310 309 307 306 305 304 302 301 299 297 295 293 290 288 285 282 279 276
97 97 96 91 82 71 50 28 8 346 329 321 319 317 316 317 319 321 322 322 322 322 322 321 319 317 316 315 315 314 313 312 311 311 310 309 308 306 304 302 299 297 294 291 288 286 283 280 277
86 80 80 77 54 16 342 329 320 315 311 311 312 313 315 318 320 321 321 321 322 322 322 320 319 318 317 317 316 315 315 314 314 313 312 310 308 306 304 302 300 297 295 292 289 286 284 281 278
53 39 35 11 333 315 311 310 310 307 307 310 314 318 320 323 323 323 323 323 323 322 321 320 319 318 318 317 317 316 316 316 315 313 311 309 307 306 304 302 300 298 296 293 291 289 286 284 281
348 338 333 324 316 310 309 309 311 313 315 320 325 328 326 326 325 323 323 323 322 322 321 320 319 318 318 318 318 318 317 316 314 312 310 308 307 306 304 302 301 299 297 295 293 291 289 286 283
319 317 315 315 315 314 317 320 322 325 328 330 331 331 327 325 323 321 321 321 321 321 320 320 319 319 319 320 319 318 317 315 313 311 309 308 307 306 305 303 302 300 298 296 294 291 289 286 283
317 316 316 318 320 324 329 332 334 335 335 333 331 329 325 323 321 320 320 321 321 321 321 321 321 321 321 321 320 319 317 315 313 311 310 309 308 307 306 305 303 301 299 297 294 291 288 286 283
320 322 325 329 333 337 339 340 339 339 336 332 329 325 323 321 320 320 321 322 323 323 323 323 324 323 323 322 321 319 317 315 313 312 312 311 310 309 308 307 305 303 300 297 294 291 289 286 284
330 335 339 342 344 345 345 343 340 338 335 331 327 324 322 321 321 322 324 325 326 325 326 326 325 324 323 321 320 318 316 315 314 313 313 312 311 311 310 309 307 304 301 299 297 295 292 288 284
345 349 351 350 350 348 345 341 339 337 334 331 327 325 325 325 326 327 328 329 328 328 328 327 325 323 321 320 319 317 316 315 315 314 314 314 314 314 313 311 308 306 304 303 301 299 296 292 287
354 356 355 353 350 348 345 343 340 338 336 335 332 331 332 332 332 333 333 332 331 330 328 326 323 321 320 319 318 317 317 316 316 315 316 316 317 316 315 313 311 310 309 307 305 303 299 296 292
354 354 352 350 349 348 353 356 345 345 346 345 343 342 341 340 339 338 337 335 333 331 328 325 322 321 320 319 318 318 318 318 318 318 318 319 319 319 318 316 315 314 313 311 309 306 304 300 296
347 348 353 352 353 357 3 9 0 356 358 354 352 351 348 346 345 344 342 339 336 332 329 325 322 321 320 320 320 320 321 321 321 321 322 322 322 322 321 320 319 318 316 315 313 311 309 306 301
346 349 355 360 359 7 11 11 9 4 4 2 360 357 355 353 353 351 348 345 341 337 333 329 325 322 321 321 322 323 323 324 324 324 325 325 325 325 324 323 322 321 320 319 317 316 314 311 306
339 342 349 358 7 12 15 13 12 10 9 7 5 2 1 360 359 356 353 351 348 344 340 335 330 327 325 325 326 327 327 327 327 327 327 328 328 328 327 326 325 324 324 323 322 321 319 316 311
325 329 341 356 3 9 11 13 13 14 13 11 9 6 4 2 0 358 355 353 351 349 346 342 338 334 331 329 329 330 330 330 330 330 330 331 331 331 330 329 329 328 327 327 326 326 324 321 318
308 315 329 345 356 4 6 8 9 14 13 10 8 5 2 360 358 356 355 353 352 351 350 348 345 341 337 334 333 334 334 333 332 332 332 333 334 334 333 332 332 332 331 331 331 330 328 325 323
297 302 316 328 338 344 355 359 5 9 9 7 5 3 2 360 358 356 355 353 352 352 351 351 349 346 342 339 337 337 336 335 334 334 334 336 336 336 335 335 335 335 334 334 335 334 331 328 326
289 294 303 310 315 324 336 349 359 2 4 2 2 2 2 1 359 357 356 354 353 352 352 351 351 349 346 342 340 339 338 337 336 336 337 338 339 338 337 337 338 338 338 338 338 337 334 330 327
281 284 289 295 303 307 324 339 345 352 354 357 358 359 360 360 359 358 357 356 355 354 353 352 351 351 349 346 343 342 340 339 338 338 340 341 341 340 340 340 340 340 341 341 341 339 336 331 327
272 277 282 284 289 300 315 328 334 340 344 348 351 354 355 356 357 357 356 356 355 354 353 353 352 351 350 348 345 344 342 341 340 340 342 343 343 343 342 343 343 343 343 344 344 342 339 334 329
265 268 272 279 290 299 307 315 323 328 334 339 344 347 349 351 353 353 354 354 354 353 353 353 352 351 350 349 347 345 344 342 342 342 344 345 346 345 345 345 345 345 346 347 346 345 342 338 332
261 262 268 276 285 292 299 305 312 320 327 332 337 341 343 346 348 350 350 351 352 352 352 352 352 351 351 350 349 347 345 344 343 344 346 347 347 347 347 348 348 348 349 349 349 348 346 342 337
258 261 266 273 281 287 295 303 312 318 322 328 333 336 338 340 343 346 347 348 349 350 351 351 351 351 350 350 349 348 346 345 344 345 347 349 349 349 349 350 350 350 351 352 352 351 350 347 342
258 260 265 271 280 288 295 305 309 315 320 325 329 331 333 336 339 342 344 345 347 348 349 349 350 350 350 350 350 349 347 346 345 346 349 350 351 351 351 351 352 352 354 355 355 354 353 351 348
259 261 266 271 278 285 293 305 306 311 316 320 323 326 329 332 335 338 340 342 344 345 347 348 349 349 350 350 350 349 348 346 346 347 350 352 352 352 353 353 354 354 356 357 357 357 357 356 354